sat.trackr.live / text

‹ back to catalog

STARLINK-37075

NORAD 68255 · 2026-054Z

PAYLOAD ACTIVE UNKNOWN

§ Identity

Operator
Country
US
Launch date
2026-03-17
Launch site
AFETR
Launch vehicle
Mass (kg)
RCS (m²)

Purposes: comms

External: N2YO · Heavens-Above · Gunter

§ Orbital elements

Epoch: 2026-09-19T23:56:14.732736Z

Period
93.85 min
Inclination
53.1565°
Eccentricity
0.0001251
Mean motion
15.34422430 rev/d
Perigee alt
461.8 km
Apogee alt
463.5 km
Semi-major
6,840.8 km
B*
4.9493e-4
RAAN
104.2145°
Arg perigee
97.9844°
Mean anomaly
262.1301°
Rev number
2,888

§ Raw data

STARLINK-370751 68255U 26054Z   26262.99739274  .00016394  00000+0  49493-3 0  99952 68255  53.1565 104.2145 0001251  97.9844 262.1301 15.34422430 28889

JSON: /api/v1/satellites/68255 · /tle

For live sub-satellite position, see the globe view (requires WebGL).

§ Visibility from observer

Set your observer location to see the next 7 days of passes ≥ 10°. The values pass through the URL so the page stays shareable.

No JS? Fill the form by hand. The geolocation button needs JavaScript.